Tracking 17884 objects as of 8-December-2016
HD Live streaming from Space Station
objects crossing your sky now

COSMOS 2416

Track COSMOS 2416 now!
10-day predictions
COSMOS 2416 is classified as:


NORAD ID: 28908
Int'l Code: 2005-048A
Perigee: 1,443.1 km
Apogee: 1,454.6 km
Inclination: 82.5 °
Period: 114.7 minutes
Semi major axis: 7819 km
RCS: 1.597 m2 (large)
Launch date: December 21, 2005
Source: Commonwealth of Independent States (former USSR) (CIS)
Launch site: PLESETSK MISSILE AND SPACE COMPLEX (PKMTR)
Your satellite tracking list
Your tracking list is empty





NASA's NSSDC Master Catalog

Two Line Element Set (TLE):
1 28908U 05048A   16341.57489120 +.00000029 +00000-0 +11691-3 0  9997
2 28908 082.4690 012.4781 0007323 026.2919 085.1996 12.55472804502244
Source of the keplerian elements: AFSPC